CW1906 Weather Reports


Display with metric or nautical units.
time (UTC)temp
F
wind
direction
speed
MPH
gust
MPH
rain 1hr
in
rain 24hr
in
rain mn
in
humidity
%
barometer
mb
20210414173316 59 127 1.0 5.0 0.00 0.00 0.00 38 1022.4
20210414171953 60 34 3.0 7.0 0.00 0.00 0.00 38 1022.7
20210414170550 58 350 3.0 6.0 0.00 0.00 0.00 40 1022.8
20210414165117 58 250 0.0 6.0 0.00 0.00 0.00 42 1022.9
20210414163326 59 20 0.0 3.0 0.00 0.00 0.00 42 1023.0
20210414161950 57 63 2.0 5.0 0.00 0.00 0.00 42 1023.3
20210414160322 56 58 2.0 6.0 0.00 0.00 0.00 43 1023.6
20210414155025 55 195 3.0 6.0 0.00 0.00 0.00 43 1023.7
20210414153341 55 1 3.0 6.0 0.00 0.00 0.00 43 1023.7
20210414151853 54 355 1.0 4.0 0.00 0.00 0.00 45 1023.5
20210414150323 54 329 3.0 6.0 0.00 0.00 0.00 46 1023.5
20210414145040 52 3 1.0 3.0 0.00 0.00 0.00 48 1023.6
20210414143311 51 60 2.0 5.0 0.00 0.00 0.00 51 1023.7
20210414141948 51 27 2.0 4.0 0.00 0.00 0.00 54 1023.8
20210414140334 50 36 1.0 4.0 0.00 0.00 0.00 55 1023.8
20210414135022 49 354 1.0 4.0 0.00 0.00 0.00 57 1024.0
20210414133447 48 24 1.0 3.0 0.00 0.00 0.00 59 1024.1
20210414132034 46 8 0.0 2.0 0.00 0.00 0.00 63 1024.1
20210414130757 45 4 0.0 1.0 0.00 0.00 0.00 67 1024.2
20210414124913 44 3 0.0 1.0 0.00 0.00 0.00 73 1024.1
20210414123310 44 3 0.0 1.0 0.00 0.00 0.00 70 1024.0
20210414120327 43 3 0.0 0.0 0.00 0.00 0.00 71 1023.7
20210414114855 43 3 0.0 1.0 0.00 0.00 0.00 73 1023.5
20210414113314 43 3 0.0 1.0 0.00 0.00 0.00 70 1023.5
20210414111951 43 5 0.0 0.0 0.00 0.00 0.00 72 1023.1
20210414110450 44 5 0.0 1.0 0.00 0.00 0.00 74 1022.8
20210414105043 45 6 0.0 1.0 0.00 0.00 0.00 69 1022.8
20210414103319 46 5 0.0 0.0 0.00 0.00 0.00 66 1022.8
20210414101930 46 6 0.0 0.0 0.00 0.00 0.00 63 1022.7
20210414100322 47 5 0.0 1.0 0.00 0.00 0.00 65 1022.4
20210414094950 47 5 0.0 0.0 0.00 0.03 0.00 61 1022.6
20210414093314 48 5 0.0 1.0 0.00 0.03 0.00 59 1022.5
20210414091923 48 5 0.0 1.0 0.00 0.03 0.00 60 1022.4
20210414090324 48 6 0.0 1.0 0.00 0.03 0.00 60 1022.4
20210414084909 49 5 0.0 2.0 0.00 0.12 0.00 59 1022.3
20210414083309 49 360 0.0 2.0 0.00 0.12 0.00 58 1022.2
20210414081904 49 8 0.0 1.0 0.00 0.12 0.00 59 1022.0
20210414080322 50 6 0.0 1.0 0.00 0.12 0.00 58 1022.1
20210414075052 51 353 0.0 1.0 0.00 0.12 0.00 58 1021.9
20210414073312 51 18 1.0 3.0 0.00 0.12 0.00 55 1022.0
20210414072056 52 356 1.0 2.0 0.00 0.12 0.00 53 1022.0
20210414070334 53 353 1.0 6.0 0.00 0.12 0.00 53 1021.8
20210414065033 53 346 1.0 3.0 0.00 0.12 0.00 53 1021.6
20210414063312 53 328 1.0 3.0 0.00 0.12 0.00 52 1021.8
20210414061902 53 353 0.0 2.0 0.00 0.12 0.00 51 1022.0
20210414060420 53 342 0.0 2.0 0.00 0.12 0.00 53 1022.2
20210414054903 53 293 0.0 2.0 0.00 0.12 0.00 54 1022.1
20210414053318 53 17 0.0 1.0 0.00 0.12 0.00 53 1022.1
20210414052041 52 339 0.0 0.0 0.00 0.12 0.00 57 1022.2
20210414050416 52 339 0.0 1.0 0.00 0.12 0.00 63 1022.3
20210414044939 51 339 0.0 0.0 0.00 0.12 0.12 63 1022.3
20210414043315 51 339 0.0 0.0 0.00 0.12 0.12 66 1022.3
20210414041908 51 339 0.0 0.0 0.00 0.12 0.12 66 1022.3
20210414040529 52 339 0.0 0.0 0.00 0.12 0.12 63 1022.2
20210414034949 52 339 0.0 0.0 0.00 0.12 0.12 63 1021.8
20210414033516 52 339 0.0 0.0 0.00 0.12 0.12 61 1021.8
20210414032040 52 339 0.0 0.0 0.00 0.12 0.12 64 1021.7
20210414030327 53 339 0.0 0.0 0.00 0.12 0.12 63 1021.8
20210414024918 53 339 0.0 0.0 0.00 0.12 0.12 60 1021.9
20210414021912 55 339 0.0 0.0 0.00 0.12 0.12 52 1021.8
20210414020325 55 339 0.0 0.0 0.00 0.12 0.12 52 1021.9
20210414015051 55 339 0.0 1.0 0.00 0.12 0.12 48 1022.0
20210414013307 55 339 0.0 0.0 0.00 0.12 0.12 48 1021.8
20210414011911 56 339 0.0 0.0 0.00 0.12 0.12 48 1021.8
20210414005041 57 339 0.0 1.0 0.00 0.12 0.12 46 1021.6
20210414003312 58 5 1.0 2.0 0.00 0.12 0.12 46 1021.5
20210414001840 58 344 0.0 1.0 0.00 0.12 0.12 43 1021.4
20210414000337 59 348 0.0 2.0 0.00 0.12 0.12 39 1021.4
20210413235152 60 342 0.0 2.0 0.00 0.12 0.12 38 1021.3
20210413233311 61 39 1.0 4.0 0.00 0.12 0.12 37 1021.1
20210413231939 61 289 0.0 3.0 0.00 0.12 0.12 35 1021.0
20210413230410 62 335 1.0 5.0 0.00 0.12 0.12 37 1021.0
20210413225135 62 1 2.0 3.0 0.00 0.12 0.12 36 1020.9
20210413223319 63 319 2.0 4.0 0.00 0.12 0.12 35 1020.9
20210413221944 63 18 1.0 6.0 0.00 0.12 0.12 33 1020.8
20210413220517 64 26 2.0 5.0 0.00 0.12 0.12 31 1020.7
20210413215031 64 259 0.0 6.0 0.00 0.12 0.12 32 1020.7
20210413213320 64 342 2.0 7.0 0.00 0.12 0.12 31 1020.8
20210413211949 65 22 3.0 6.0 0.00 0.12 0.12 31 1020.8
20210413210313 64 68 2.0 6.0 0.00 0.12 0.12 33 1020.7
20210413204842 65 343 2.0 4.0 0.00 0.12 0.12 33 1020.8
20210413203322 64 246 2.0 7.0 0.00 0.12 0.12 34 1021.2
20210413202019 64 52 2.0 6.0 0.00 0.12 0.12 37 1021.4
20210413200410 64 355 2.0 4.0 0.00 0.12 0.12 35 1021.6
20210413194819 63 34 1.0 4.0 0.00 0.12 0.12 39 1021.9
20210413193324 63 33 4.0 6.0 0.00 0.12 0.12 36 1022.2
20210413192124 62 72 2.0 3.0 0.00 0.12 0.12 39 1022.2
20210413190318 63 267 1.0 4.0 0.00 0.12 0.12 35 1022.6
20210413184945 62 9 3.0 6.0 0.00 0.12 0.12 35 1022.7
20210413183331 63 166 1.0 3.0 0.00 0.12 0.12 36 1022.9
20210413181911 62 343 2.0 6.0 0.00 0.12 0.12 37 1023.2
20210413180333 62 11 3.0 6.0 0.00 0.12 0.12 36 1023.3
20210413174909 62 360 2.0 5.0 0.00 0.12 0.12 39 1023.4